061  
ASUS41 KBOX 250510  
RWRBOX  
 
REGIONAL WEATHER ROUNDUP  
NATIONAL WEATHER SERVICE TAUNTON MA  
100 AM EDT SAT MAR 25 2017  
 
NOTE: "FAIR" INDICATES FEW OR NO CLOUDS BELOW 12,000 FEET WITH NO  
SIGNIFICANT WEATHER AND/OR S TO VISIBILITY
.  
 
MAZALL-250600-  
EASTERN MASSACHUSETTS  
 
CITY SKY/WX TMP DP RH WIND PRES REMARKS
 
BOSTON MOCLDY 45 32 60 SW8 30.06F  
BEVERLY CLOUDY 38 33 82 CALM 30.05S  
LAWRENCE CLOUDY 37 35 92 CALM 30.07S FOG  
BEDFORD CLOUDY 44 29 55 SW3 30.04F  
BLUE HILL N/A 43 30 60 SW12 30.04F  
NORWOOD CLOUDY 46 32 58 SW5 30.07F  
MARSHFIELD CLOUDY 46 32 57 SW5 30.07S  
PLYMOUTH PTCLDY 42 32 67 SW6 30.08F  
TAUNTON CLOUDY 37 31 78 CALM 30.08F  
NEW BEDFORD PTCLDY 44 35 70 CALM 30.09R  

 
 
MAZALL-250600-  
CAPE COD AND THE ISLANDS  
 
CITY SKY/WX TMP DP RH WIND PRES REMARKS
 
FALMOUTH CLOUDY 41 37 87 MISG 30.10S  
HYANNIS CLOUDY 44 38 79 W7 30.08R  
CHATHAM CLOUDY 45 40 82 W7G16 30.10S  
PROVINCETOWN CLOUDY 43 35 73 SW9 30.08F  
NANTUCKET PTCLDY 42 38 85 SW20 30.10F  
MARTHAS VNYRD MOCLDY 47 39 74 SW14 30.09F  

 
 
MAZALL-250600-  
CENTRAL AND WESTERN MASSACHUSETTS  
 
CITY SKY/WX TMP DP RH WIND PRES REMARKS
 
WORCESTER CLOUDY 42 30 62 SW12 30.03F  
FITCHBURG LGT RAIN 40 33 76 CALM 30.07R  
ORANGE LGT RAIN 35 33 92 CALM 30.06S  
SPRINGFIELD CLOUDY 37 29 72 SE3 30.06S  
WESTFIELD CLOUDY 35 30 82 CALM 30.06S  
NORTH ADAMS CLOUDY 36 34 92 VRB3 30.06S  
PITTSFIELD CLOUDY 40 33 76 VRB3 30.02F  

 
 
RIZALL-250600-  
RHODE ISLAND  
 
CITY SKY/WX TMP DP RH WIND PRES REMARKS
 
PROVIDENCE PTCLDY 46 33 60 SW5 30.08F  
NEWPORT CLOUDY 45 37 73 W5 30.08F  
BLOCK ISLAND MOCLDY 43 39 86 SW17 30.11F  
SMITHFIELD CLOUDY 43 32 65 SW5 30.07S  
WESTERLY CLOUDY 43 38 82 SW5 30.11F  

 
 
CTZALL-250600-  
CONNECTICUT  
 
CITY SKY/WX TMP DP RH WIND PRES REMARKS
 
BRADLEY INTL CLOUDY 42 32 67 S7 30.07S  
HARTFORD CLOUDY 41 33 73 S6 30.09F  
BRIDGEPORT CLOUDY 46 36 68 W3 30.10S  
DANBURY CLOUDY 45 33 63 W3 30.08F  
GROTON CLOUDY 42 36 79 S3 30.10F  
NEW HAVEN CLOUDY 38 34 85 CALM 30.10F  
CHESTER NOT AVBL  
MERIDEN PTCLDY 41 34 76 S7 30.08F  
WILLIMANTIC PTCLDY 40 32 73 VRB3 30.08F  
OXFORD CLOUDY 43 30 61 SW3 30.08F  

 
 
MEZ002-015-021-024-NHZ003-005-008-011-012-014-VTZ005-008-250600-  
NORTHERN NEW ENGLAND  
 
CITY SKY/WX TMP DP RH WIND PRES REMARKS
 
PORTLAND ME CLOUDY 34 32 92 W7 30.05F WCI 28  
BANGOR ME CLOUDY 31 31 100 NW5 30.03F WCI 26  
CONCORD NH CLOUDY 34 31 88 N3 30.06R FOG  
MANCHESTER NH CLOUDY 35 32 88 CALM 30.04F  
NASHUA NH NOT AVBL  
PORTSMOUTH NH CLOUDY 34 33 97 CALM 30.04F FOG  
JAFFREY NH NOT AVBL  
KEENE NH NOT AVBL  
BURLINGTON VT LGT SNOW 34 32 92 CALM 30.11R FOG  
MT. WASHINGTON BLWGSNOW 19 19 100 W40G48 N/A VSB 0 WCI -2  

 
 
NYZ052-076-250600-  
EASTERN NEW YORK  
 
CITY SKY/WX TMP DP RH WIND PRES REMARKS
 
ALBANY CLOUDY 40 33 76 CALM 30.09S  
NEW YORK CITY MOCLDY 54 33 45 SW9 30.10F  

 
 
ANZALL-250600-  
MARINE OBSERVATIONS  
 
STATION/POSITION TIME TEMP WIND PRES VSBY WAVE
 
AIR SEA DIR/SP/G HT/PER  
(UTC) (F) (DEG/KT/KT) (MB) (MI) (FT/S)  
BOSTON BUOY 0450 43 40 200/ 6/ 6 1017.3F 1/ 4  
BUZZARDS BAY 0400 43 240/ 24/ 25 1019.5R  
NANTUCKET SOUND 0450 39 1018.9R 2/ 4  
MASS BAY-STELLWA 0404 41 39 210/ 6/ 6 1016.7F 2/ 4  
ISLE OF SHOALS 0400 38 250/ 10/ 10 1017.7F  
S OF BLOCK IS 0455 40 N/A 8/ 8  

 
   
.....................KEY......................
 
 
SKY/WX - SKY CONDITION/PRESENT WEATHER  
TMP - TEMPERATURE IN FAHRENHEIT  
DWPT - DEWPOINT IN FAHRENHEIT  
RH - RELATIVE HUMIDITY IN PERCENT  
WIND - DIRECTION AND SPEED IN MPH  
PRES - MEAN SEA LEVEL PRESSURE IN INCHES OF HG  
WCI - WIND CHILL INDEX  
VSB - VISIBILITY IN MILES  
HX - HEAT INDEX  
TC - TEMPERATURE IN CELSIUS  
VRB - VARIABLE WIND DIRECTION  
N/A - NOT AVAILABLE  
 
 
CLICK HERE TO GO TO PREVIOUS BULLETINS.

The Nexlab MA Page
The Nexlab RI Page
The Nexlab NH Page
The Nexlab CT Page Main Text Page